Back to catalog

STARLINK-1357

AliveCommunicationsVLEO
NORAD 45565·PAYLOAD·🇺🇸 United States

Launched Apr 22, 2020 from Cape Canaveral Space Force Station

Loading…

Next Passes (next 24 hours)

TLE

FreshSource: CelesTrak SupGP

Epoch: Sep 14, 2026, 13:52 UTC

1 45565C 20025AL  26257.57826389  .00116610  00000+0  52274-3 0  2578
2 45565  53.0356 183.9849 0007317  95.3206 216.0228 15.83343031    17

Track STARLINK-1357 in real time with AllMySat

Download on the App Store